Weather History for Worland, WY

Change the Weather History Date:

Friday, January 4, 2013

  Actual Average Record
Temperature  
Mean Temperature 4 °F 16 °F  
Max Temperature 20 °F 30 °F 49 °F (1965)
Min Temperature -12 °F 3 °F -29 °F (1973)
Degree Days  
Heating Degree Days 61 49  
Month to date heating degree days 233 196  
Since 1 July heating degree days 2975 3559  
Cooling Degree Days 0 0  
Month to date cooling degree days 0 0  
Year to date cooling degree days 0 0  
Moisture  
Dew Point -4 °F    
Average Humidity 74    
Maximum Humidity 87    
Minimum Humidity 61    
Precipitation  
Precipitation 0.00 in 0.01 in 0.19 in (1963)
Month to date precipitation T 0.03  
Year to date precipitation T 0.03  
Sea Level Pressure  
Sea Level Pressure 30.41 in    
Wind  
Wind Speed 2 mph (SSE)    
Max Wind Speed 8 mph    
Max Gust Speed 9 mph    
Visibility 10 miles    
Events      
T = Trace of Precipitation, MM = Missing Value Source: NWS Daily Summary

Daily Weather History Graph

Daily Weather History Graph

Search for Another Location

Airport:

Trip Planner

Search our weather history database for the weather conditions in past years. The results will help you decide how hot, cold, wet, or windy it might be!

Date:

Astronomy

Jan. 04, 2013 Rise Set
Actual Time 7:46 AM MST 4:47 PM MST
Civil Twilight 7:13 AM MST 5:20 PM MST
Nautical Twilight 6:37 AM MST 5:56 PM MST
Astronomical Twilight 6:02 AM MST 6:31 PM MST
Moon No Moon Rise 11:14 AM MST (1/4)
Length of Visible Light 10h 06m
Length of Day
9h 01m
Waning Gibbous, 54% of the Moon is Illuminated
Jan 4
Waning Gibbous
Jan 4
Last Quarter
Jan 11
New
Jan 18
First Quarter
Jan 26
Full

Hourly Weather History & Observations

Time (MST) Temp. Windchill Dew Point Humidity Pressure Visibility Wind Dir Wind Speed Gust Speed Precip Events Conditions
12:53 AM 1.0 °F -10.3 °F -5.1 °F 75% 30.43 in 10.0 mi SSW 5.8 mph - N/A   Clear
1:53 AM -4.0 °F - -9.0 °F 79% 30.43 in 10.0 mi Calm Calm - N/A   Clear
2:53 AM -7.1 °F - -11.0 °F 83% 30.43 in 10.0 mi Calm Calm - N/A   Clear
3:53 AM -7.1 °F - -11.9 °F 79% 30.43 in 10.0 mi Calm Calm - N/A   Clear
4:53 AM -6.0 °F -18.6 °F -11.0 °F 79% 30.44 in 10.0 mi SSW 5.8 mph - N/A   Clear
6:53 AM -9.0 °F - -14.1 °F 79% 30.46 in 10.0 mi Calm Calm - N/A   Clear
7:53 AM -8.0 °F - -13.0 °F 79% 30.45 in 10.0 mi Calm Calm - N/A   Clear
8:53 AM -4.0 °F -12.4 °F -8.0 °F 83% 30.47 in 10.0 mi South 3.5 mph - N/A   Clear
9:53 AM -0.0 °F - -6.0 °F 76% 30.44 in 10.0 mi Calm Calm - N/A   Clear
10:53 AM 5.0 °F - -2.0 °F 73% 30.44 in 10.0 mi Calm Calm - N/A   Clear
11:53 AM 12.0 °F - 1.0 °F 61% 30.40 in 10.0 mi Calm Calm - 0.00 in   Clear
12:53 PM 14.0 °F - 3.9 °F 64% 30.33 in 10.0 mi Calm Calm - N/A   Clear
1:53 PM 18.0 °F - 6.1 °F 60% 30.32 in 10.0 mi Calm Calm - N/A   Clear
2:53 PM 18.0 °F 12.7 °F 6.1 °F 60% 30.32 in 10.0 mi NE 3.5 mph - N/A   Clear
3:53 PM 18.0 °F - 6.1 °F 60% 30.32 in 10.0 mi Calm Calm - N/A   Clear
4:53 PM 10.0 °F 3.6 °F 3.0 °F 73% 30.37 in 10.0 mi East 3.5 mph - N/A   Clear
5:53 PM 5.0 °F - -0.9 °F 76% 30.41 in 10.0 mi Calm Calm - N/A   Clear
6:53 PM 5.0 °F -6.9 °F -0.0 °F 80% 30.43 in 10.0 mi NE 6.9 mph - N/A   Clear
7:53 PM 5.0 °F - -0.0 °F 80% 30.43 in 10.0 mi Calm Calm - N/A   Clear
8:53 PM 1.9 °F -7.6 °F -2.0 °F 83% 30.43 in 10.0 mi SSW 4.6 mph - N/A   Clear
9:53 PM 3.0 °F -8.0 °F -0.9 °F 84% 30.41 in 10.0 mi South 5.8 mph - N/A   Clear
10:53 PM -0.9 °F -11.0 °F -4.0 °F 87% 30.41 in 10.0 mi SE 4.6 mph - N/A   Clear
11:53 PM -5.1 °F - -8.0 °F 87% 30.39 in 10.0 mi Calm Calm - N/A   Clear